20040409,000002,1468792,34.315780,-120.441330,NaN,14.404,33.414,40.611,1629.20,0.0, NaN,12.949,12.912, NaN,24.877,   NaN,12.86,1013.53,90.06,12.42,164.3,158.9,4.2,3.8,304.5,302.7,9.4,9.0,NaN, NaN,NaN,132.7,NaN,1081468802,NaN,NaN,10.7,000002,   NaN,131.4,34.315890,-120.441440,0.51,NaN,NaN,14.407, NaN,NaN,NaN, NaN, NaN
20040409,000032,1468822,34.314760,-120.440060,NaN,14.394,33.417,40.606,1422.60,0.0, NaN,12.971,12.935, NaN,24.882,   NaN,12.86,1013.49,89.88,12.43,164.2,159.7,4.4,4.0,304.8,303.3,9.6,9.2,NaN, NaN,NaN,131.2,NaN,1081468832,NaN,NaN,10.3,000032,   NaN,130.1,34.314870,-120.440170,0.54,NaN,NaN,14.397, NaN,NaN,NaN, NaN, NaN
20040409,000102,1468851,34.313760,-120.438820,NaN,14.384,33.411,40.590,1089.17,0.0, NaN,12.996,12.962, NaN,24.879,   NaN,12.81,1013.50,89.69,12.42,162.4,157.3,4.3,3.9,304.6,303.0,9.4,9.0,NaN, NaN,NaN,131.1,NaN,1081468862,NaN,NaN,10.1,000062,   NaN,129.6,34.313860,-120.438930,0.78,NaN,NaN,14.387, NaN,NaN,NaN, NaN, NaN
20040409,000132,1468882,34.312740,-120.437530,NaN,14.381,33.420,40.597,1681.86,0.0, NaN,13.026,12.991, NaN,24.887,   NaN,12.78,1013.52,89.50,12.41,164.8,158.7,4.1,3.9,305.8,303.4,9.3,9.1,NaN, NaN,NaN,132.5,NaN,1081468892,NaN,NaN,10.4,000092,   NaN,129.6,34.312840,-120.437630,0.65,NaN,NaN,14.384, NaN,NaN,NaN, NaN, NaN
20040409,000202,1468912,34.311750,-120.436210,NaN,14.377,33.414,40.586,1523.00,0.0, NaN,13.044,13.009, NaN,24.883,   NaN,12.84,1013.52,89.73,12.42,166.9,161.9,4.0,4.4,306.2,303.6,9.3,9.6,NaN, NaN,NaN,133.3,NaN,1081468922,NaN,NaN,11.4,000122,   NaN,131.9,34.311840,-120.436310,0.54,NaN,NaN,14.380, NaN,NaN,NaN, NaN, NaN
20040409,000232,1468942,34.310750,-120.434940,NaN,14.373,33.422,40.591,1691.76,0.0, NaN,13.045,13.008, NaN,24.889,   NaN,12.94,1013.49,89.93,12.46,170.2,163.6,3.7,4.4,307.7,304.0,9.0,9.6,NaN, NaN,NaN,127.2,NaN,1081468952,NaN,NaN,10.1,000152,   NaN,128.7,34.310850,-120.435040,0.33,NaN,NaN,14.376, NaN,NaN,NaN, NaN, NaN
20040409,000302,1468972,34.309760,-120.433640,NaN,14.366,33.422,40.585,1675.78,0.0, NaN,13.025,12.985, NaN,24.891,   NaN,12.98,1013.52,89.70,12.49,168.8,162.2,3.9,4.0,306.9,303.8,9.2,9.3,NaN, NaN,NaN,133.9,NaN,1081468982,NaN,NaN,10.6,000182,   NaN,129.2,34.309860,-120.433730,0.36,NaN,NaN,14.369, NaN,NaN,NaN, NaN, NaN
20040409,000333,1469003,34.308710,-120.432340,NaN,14.359,33.422,40.578,941.80,0.0, NaN,12.995,12.953, NaN,24.893,   NaN,12.97,1013.48,89.57,12.54,158.6,154.7,4.0,4.0,303.2,301.2,9.1,9.1,NaN, NaN,NaN,137.5,NaN,1081469014,NaN,NaN,10.7,000213,   NaN,131.1,34.308810,-120.432440,0.67,NaN,NaN,14.362, NaN,NaN,NaN, NaN, NaN
20040409,000403,1469033,34.307670,-120.431060,NaN,14.364,33.421,40.582,984.00,0.0, NaN,12.970,12.927, NaN,24.891,   NaN,12.84,1013.46,88.96,12.50,150.0,148.8,4.4,4.6,299.8,298.8,9.5,9.6,NaN, NaN,NaN,135.1,NaN,1081469044,NaN,NaN,11.3,000243,   NaN,133.1,34.307760,-120.431150,0.45,NaN,NaN,14.367, NaN,NaN,NaN, NaN, NaN
20040409,000433,1469063,34.306650,-120.429800,NaN,14.375,33.421,40.592,1012.62,0.0, NaN,12.942,12.901, NaN,24.889,   NaN,12.66,1013.50,88.43,12.41,152.9,150.0,5.2,5.2,299.4,298.0,10.2,10.1,NaN, NaN,NaN,131.7,NaN,1081469074,NaN,NaN,12.6,000273,   NaN,131.4,34.306750,-120.429910,0.56,NaN,NaN,14.378, NaN,NaN,NaN, NaN, NaN
20040409,000502,1469092,34.305680,-120.428520,NaN,14.395,33.422,40.611,1048.35,0.0, NaN,12.922,12.881, NaN,24.885,   NaN,12.57,1013.47,88.56,12.33,156.1,153.4,5.0,4.9,300.6,299.5,10.2,10.0,NaN, NaN,NaN,130.9,NaN,1081469103,NaN,NaN,11.2,000302,   NaN,131.7,34.305740,-120.428560,0.33,NaN,NaN,14.398, NaN,NaN,NaN, NaN, NaN
20040409,000532,1469122,34.304680,-120.427260,NaN,14.414,33.422,40.629,1233.23,0.0, NaN,12.908,12.866, NaN,24.881,   NaN,12.54,1013.45,88.78,12.27,159.9,156.2,5.5,4.9,301.4,300.3,10.6,10.0,NaN, NaN,NaN,132.2,NaN,1081469133,NaN,NaN,10.3,000332,   NaN,132.1,34.304740,-120.427310,0.45,NaN,NaN,14.417, NaN,NaN,NaN, NaN, NaN
20040409,000602,1469152,34.303630,-120.425990,NaN,14.429,33.423,40.645,1464.63,0.0, NaN,12.900,12.858, NaN,24.878,   NaN,12.53,1013.49,88.82,12.23,159.5,155.3,5.7,5.0,301.7,300.5,10.9,10.1,NaN, NaN,NaN,135.1,NaN,1081469163,NaN,NaN,11.3,000362,   NaN,128.8,34.303690,-120.426040,0.36,NaN,NaN,14.432, NaN,NaN,NaN, NaN, NaN
20040409,000632,1469182,34.302620,-120.424710,NaN,14.430,33.423,40.646,1283.85,0.0, NaN,12.899,12.859, NaN,24.878,   NaN,12.57,1013.47,89.09,12.21,161.3,157.8,5.4,5.0,302.7,301.5,10.7,10.2,NaN, NaN,NaN,131.8,NaN,1081469193,NaN,NaN,12.0,000392,   NaN,133.1,34.302690,-120.424760,0.43,NaN,NaN,14.433, NaN,NaN,NaN, NaN, NaN
20040409,000702,1469212,34.301710,-120.423350,NaN,14.413,33.425,40.632,1483.88,0.0, NaN,12.895,12.854, NaN,24.884,   NaN,12.61,1013.47,89.40,12.22,167.2,163.0,4.6,4.6,303.2,301.2,9.9,9.9,NaN, NaN,NaN,120.6,NaN,1081469223,NaN,NaN,9.2,000422,   NaN,112.3,34.301760,-120.423430,0.78,NaN,NaN,14.416, NaN,NaN,NaN, NaN, NaN
20040409,000732,1469242,34.301110,-120.421820,NaN,14.398,33.427,40.620,2016.68,0.0, NaN,12.890,12.851, NaN,24.889,   NaN,12.72,1013.51,89.63,12.25,182.0,178.1,4.8,5.0,302.2,300.2,10.0,10.2,NaN, NaN,NaN,117.7,NaN,1081469253,NaN,NaN,10.7,000452,   NaN,113.9,34.301160,-120.421890,0.40,NaN,NaN,14.401, NaN,NaN,NaN, NaN, NaN
20040409,000802,1469272,34.300430,-120.420250,NaN,14.381,33.425,40.602,1623.91,0.0, NaN,12.885,12.846, NaN,24.890,   NaN,12.83,1013.45,89.88,12.31,190.9,191.1,4.7,4.6,300.3,300.0,9.9,9.8,NaN, NaN,NaN,119.3,NaN,1081469283,NaN,NaN,10.4,000482,   NaN,111.9,34.300470,-120.420330,0.69,NaN,NaN,14.384, NaN,NaN,NaN, NaN, NaN
20040409,000832,1469302,34.299780,-120.418730,NaN,14.363,33.424,40.584,1813.68,0.0, NaN,12.879,12.838, NaN,24.894,   NaN,12.93,1013.48,89.94,12.37,190.2,193.9,3.9,4.1,299.8,301.7,9.1,9.4,NaN, NaN,NaN,120.0,NaN,1081469313,NaN,NaN,10.2,000512,   NaN,114.1,34.299830,-120.418820,0.39,NaN,NaN,14.366, NaN,NaN,NaN, NaN, NaN
20040409,000902,1469332,34.299080,-120.417160,NaN,14.346,33.426,40.570,1306.60,0.0, NaN,12.860,12.820, NaN,24.898,   NaN,12.99,1013.53,89.75,12.42,190.0,189.7,3.5,3.9,299.6,300.0,8.7,9.2,NaN, NaN,NaN,117.5,NaN,1081469343,NaN,NaN,11.1,000542,   NaN,115.9,34.299130,-120.417230,0.44,NaN,NaN,14.349, NaN,NaN,NaN, NaN, NaN
20040409,000932,1469361,34.298340,-120.415620,NaN,14.331,33.427,40.557,1150.96,0.0, NaN,12.848,12.805, NaN,24.903,   NaN,12.97,1013.45,89.50,12.46,183.1,177.3,4.0,3.8,298.5,296.3,9.3,9.1,NaN, NaN,NaN,121.7,NaN,1081469373,NaN,NaN,9.7,000572,   NaN,115.4,34.298390,-120.415700,0.58,NaN,NaN,14.334, NaN,NaN,NaN, NaN, NaN
20040409,001002,1469392,34.297640,-120.414090,NaN,14.327,33.428,40.554,1684.61,0.0, NaN,12.837,12.797, NaN,24.904,   NaN,12.95,1013.50,89.33,12.48,183.2,174.8,4.7,3.9,298.9,295.5,10.1,9.3,NaN, NaN,NaN,117.7,NaN,1081469403,NaN,NaN,10.7,000602,   NaN,114.1,34.297680,-120.414160,0.58,NaN,NaN,14.330, NaN,NaN,NaN, NaN, NaN
20040409,001032,1469422,34.296910,-120.412510,NaN,14.325,33.429,40.554,1901.25,0.0, NaN,12.824,12.783, NaN,24.905,   NaN,13.01,1013.47,89.36,12.55,185.4,177.3,5.0,4.6,299.6,296.0,10.4,10.0,NaN, NaN,NaN,119.1,NaN,1081469433,NaN,NaN,10.2,000632,   NaN,114.4,34.296960,-120.412580,0.39,NaN,NaN,14.328, NaN,NaN,NaN, NaN, NaN
20040409,001102,1469452,34.296240,-120.410940,NaN,14.316,33.428,40.545,1450.64,0.0, NaN,12.804,12.761, NaN,24.907,   NaN,13.01,1013.46,88.98,12.57,184.3,176.3,5.1,5.4,298.4,294.4,10.5,10.8,NaN, NaN,NaN,113.7,NaN,1081469463,NaN,NaN,10.4,000662,   NaN,113.2,34.296280,-120.411010,0.70,NaN,NaN,14.319, NaN,NaN,NaN, NaN, NaN
20040409,001132,1469482,34.295570,-120.409370,NaN,14.312,33.428,40.540,1302.19,0.0, NaN,12.780,12.736, NaN,24.907,   NaN,12.98,1013.45,88.79,12.57,184.1,177.3,4.8,5.3,297.9,294.5,10.3,10.7,NaN, NaN,NaN,118.1,NaN,1081469493,NaN,NaN,11.0,000692,   NaN,114.9,34.295610,-120.409430,0.33,NaN,NaN,14.315, NaN,NaN,NaN, NaN, NaN
20040409,001202,1469512,34.294870,-120.407800,NaN,14.306,33.430,40.536,1416.50,0.0, NaN,12.761,12.716, NaN,24.910,   NaN,12.99,1013.46,88.84,12.59,180.9,176.7,4.5,4.9,296.4,294.3,9.9,10.3,NaN, NaN,NaN,119.4,NaN,1081469523,NaN,NaN,10.6,000722,   NaN,116.1,34.294920,-120.407870,0.42,NaN,NaN,14.309, NaN,NaN,NaN, NaN, NaN
20040409,001232,1469542,34.294140,-120.406190,NaN,14.293,33.422,40.516,1613.65,0.0, NaN,12.738,12.696, NaN,24.907,   NaN,13.00,1013.48,88.69,12.60,178.3,173.0,4.1,4.5,296.1,293.7,9.6,10.0,NaN, NaN,NaN,115.3,NaN,1081469553,NaN,NaN,10.8,000752,   NaN,115.2,34.294180,-120.406250,0.44,NaN,NaN,14.296, NaN,NaN,NaN, NaN, NaN
20040409,001302,1469572,34.293420,-120.404620,NaN,14.284,33.425,40.511,1335.27,0.0, NaN,12.718,12.675, NaN,24.911,   NaN,13.04,1013.42,88.75,12.65,177.9,170.6,3.8,3.9,296.5,293.6,9.3,9.3,NaN, NaN,NaN,115.4,NaN,1081469583,NaN,NaN,10.8,000782,   NaN,113.2,34.293460,-120.404680,0.47,NaN,NaN,14.287, NaN,NaN,NaN, NaN, NaN
20040409,001332,1469602,34.292740,-120.403030,NaN,14.275,33.407,40.483,1245.35,0.0, NaN,12.698,12.654, NaN,24.899,   NaN,13.03,1013.48,88.59,12.66,179.3,169.4,4.3,3.9,296.4,292.3,9.8,9.4,NaN, NaN,NaN,120.6,NaN,1081469613,NaN,NaN,11.8,000812,   NaN,114.4,34.292790,-120.403100,0.56,NaN,NaN,14.278, NaN,NaN,NaN, NaN, NaN
20040409,001402,1469632,34.292040,-120.401460,NaN,14.260,33.430,40.494,1496.95,0.0, NaN,12.681,12.636, NaN,24.920,   NaN,12.99,1013.43,88.25,12.66,179.1,168.3,4.8,4.6,295.9,291.1,10.2,10.0,NaN, NaN,NaN,115.3,NaN,1081469643,NaN,NaN,10.2,000842,   NaN,115.1,34.292090,-120.401540,0.67,NaN,NaN,14.263, NaN,NaN,NaN, NaN, NaN
20040409,001432,1469662,34.291320,-120.399860,NaN,14.249,33.432,40.485,1612.05,0.0, NaN,12.672,12.628, NaN,24.923,   NaN,12.97,1013.42,88.16,12.64,179.2,170.3,4.5,4.6,296.5,292.2,10.0,10.0,NaN, NaN,NaN,119.7,NaN,1081469673,NaN,NaN,10.2,000872,   NaN,112.6,34.291360,-120.399940,0.32,NaN,NaN,14.252, NaN,NaN,NaN, NaN, NaN
20040409,001503,1469693,34.290620,-120.398220,NaN,14.239,33.433,40.476,1274.50,0.0, NaN,12.663,12.619, NaN,24.926,   NaN,13.02,1013.45,88.47,12.66,185.3,181.3,4.5,4.1,298.7,296.4,9.9,9.6,NaN, NaN,NaN,114.0,NaN,1081469704,NaN,NaN,11.3,000903,   NaN,113.9,34.290660,-120.398290,0.48,NaN,NaN,14.242, NaN,NaN,NaN, NaN, NaN
20040409,001532,1469722,34.289940,-120.396680,NaN,14.214,33.434,40.454,1527.83,0.0, NaN,12.658,12.616, NaN,24.932,   NaN,13.08,1013.44,88.60,12.71,183.5,182.5,4.4,4.0,297.7,296.9,9.9,9.5,NaN, NaN,NaN,118.1,NaN,1081469733,NaN,NaN,11.7,000932,   NaN,117.1,34.289990,-120.396740,0.88,NaN,NaN,14.217, NaN,NaN,NaN, NaN, NaN
20040409,001603,1469753,34.289230,-120.395040,NaN,14.194,33.434,40.436,1079.27,0.0, NaN,12.660,12.619, NaN,24.936,   NaN,13.03,1013.38,88.03,12.71,177.6,172.4,4.3,4.4,295.2,293.0,9.8,9.8,NaN, NaN,NaN,120.8,NaN,1081469764,NaN,NaN,10.0,000963,   NaN,115.7,34.289280,-120.395110,0.55,NaN,NaN,14.197, NaN,NaN,NaN, NaN, NaN
20040409,001633,1469782,34.288530,-120.393470,NaN,14.176,33.434,40.419,995.05,0.0, NaN,12.666,12.625, NaN,24.941,   NaN,12.96,1013.48,87.87,12.68,175.8,167.4,4.4,4.4,294.6,291.1,9.9,9.8,NaN, NaN,NaN,118.4,NaN,1081469794,NaN,NaN,10.9,000993,   NaN,115.9,34.288570,-120.393530,0.50,NaN,NaN,14.179, NaN,NaN,NaN, NaN, NaN
20040409,001703,1469813,34.287800,-120.391860,NaN,14.159,33.435,40.405,966.21,0.0, NaN,12.677,12.638, NaN,24.945,   NaN,12.94,1013.42,87.94,12.68,179.0,167.8,4.4,3.9,296.2,291.8,9.9,9.3,NaN, NaN,NaN,118.1,NaN,1081469824,NaN,NaN,10.4,001023,   NaN,112.2,34.287850,-120.391940,0.57,NaN,NaN,14.162, NaN,NaN,NaN, NaN, NaN
20040409,001733,1469843,34.287100,-120.390270,NaN,14.140,33.436,40.387,1002.32,0.0, NaN,12.687,12.651, NaN,24.949,   NaN,12.93,1013.42,88.08,12.67,184.6,173.3,4.4,3.8,298.8,294.3,9.9,9.3,NaN, NaN,NaN,120.3,NaN,1081469854,NaN,NaN,11.1,001053,   NaN,115.5,34.287150,-120.390340,0.72,NaN,NaN,14.143, NaN,NaN,NaN, NaN, NaN
20040409,001803,1469873,34.286390,-120.388670,NaN,14.128,33.436,40.376,1025.21,0.0, NaN,12.704,12.666, NaN,24.952,   NaN,12.98,1013.44,88.29,12.69,186.4,181.5,4.0,3.5,299.3,297.3,9.5,9.0,NaN, NaN,NaN,117.8,NaN,1081469884,NaN,NaN,11.8,001083,   NaN,113.1,34.286440,-120.388740,0.46,NaN,NaN,14.131, NaN,NaN,NaN, NaN, NaN
20040409,001833,1469903,34.285700,-120.387070,NaN,14.117,33.439,40.368,959.62,0.0, NaN,12.716,12.680, NaN,24.956,   NaN,13.00,1013.41,88.30,12.69,182.2,179.3,3.5,3.6,297.5,296.3,9.0,9.1,NaN, NaN,NaN,118.6,NaN,1081469914,NaN,NaN,10.1,001113,   NaN,115.1,34.285740,-120.387140,0.47,NaN,NaN,14.120, NaN,NaN,NaN, NaN, NaN
20040409,001903,1469933,34.284990,-120.385490,NaN,14.109,33.437,40.359,924.87,0.0, NaN,12.727,12.694, NaN,24.957,   NaN,13.00,1013.43,88.25,12.70,183.0,180.2,3.5,3.7,298.0,296.8,9.0,9.2,NaN, NaN,NaN,116.4,NaN,1081469944,NaN,NaN,10.2,001143,   NaN,114.5,34.285040,-120.385560,0.29,NaN,NaN,14.112, NaN,NaN,NaN, NaN, NaN
20040409,001932,1469962,34.284300,-120.383910,NaN,14.101,33.439,40.354,869.83,0.0, NaN,12.737,12.701, NaN,24.960,   NaN,13.01,1013.42,88.18,12.70,186.5,186.1,3.3,3.5,299.3,299.3,8.8,9.0,NaN, NaN,NaN,119.9,NaN,1081469973,NaN,NaN,11.8,001172,   NaN,114.6,34.284340,-120.383960,0.65,NaN,NaN,14.104, NaN,NaN,NaN, NaN, NaN
20040409,002003,1469993,34.283570,-120.382240,NaN,14.098,33.440,40.352,866.77,0.0, NaN,12.743,12.704, NaN,24.961,   NaN,13.01,1013.36,88.25,12.69,198.0,198.8,2.7,3.1,302.1,303.2,8.2,8.6,NaN, NaN,NaN,118.5,NaN,1081470004,NaN,NaN,9.9,001203,   NaN,113.9,34.283620,-120.382320,0.50,NaN,NaN,14.101, NaN,NaN,NaN, NaN, NaN
20040409,002033,1470023,34.282880,-120.380630,NaN,14.101,33.436,40.350,952.48,0.0, NaN,12.744,12.707, NaN,24.957,   NaN,13.06,1013.45,88.50,12.70,204.7,200.7,2.4,2.9,302.2,303.3,7.8,8.4,NaN, NaN,NaN,116.9,NaN,1081470034,NaN,NaN,11.9,001233,   NaN,112.4,34.282910,-120.380690,0.38,NaN,NaN,14.104, NaN,NaN,NaN, NaN, NaN
20040409,002103,1470053,34.282160,-120.378980,NaN,14.105,33.438,40.357,1021.04,0.0, NaN,12.745,12.708, NaN,24.958,   NaN,13.07,1013.38,88.41,12.74,189.6,187.1,3.1,3.1,298.3,298.7,8.5,8.7,NaN, NaN,NaN,117.3,NaN,1081470064,NaN,NaN,11.4,001263,   NaN,116.8,34.282210,-120.379040,0.59,NaN,NaN,14.108, NaN,NaN,NaN, NaN, NaN
20040409,002133,1470083,34.281440,-120.377380,NaN,14.117,33.438,40.367,850.28,0.0, NaN,12.738,12.700, NaN,24.955,   NaN,12.98,1013.36,87.94,12.70,180.6,175.3,4.1,3.8,297.0,295.1,9.7,9.4,NaN, NaN,NaN,118.0,NaN,1081470094,NaN,NaN,10.4,001293,   NaN,114.2,34.281490,-120.377460,0.54,NaN,NaN,14.120, NaN,NaN,NaN, NaN, NaN
20040409,002203,1470112,34.280730,-120.375760,NaN,14.127,33.438,40.376,837.37,0.0, NaN,12.728,12.691, NaN,24.954,   NaN,12.93,1013.41,88.02,12.67,185.3,179.9,4.4,4.3,299.0,296.8,10.0,9.9,NaN, NaN,NaN,117.3,NaN,1081470124,NaN,NaN,11.0,001323,   NaN,114.1,34.280770,-120.375830,0.39,NaN,NaN,14.130, NaN,NaN,NaN, NaN, NaN
20040409,002233,1470143,34.279980,-120.374160,NaN,14.139,33.431,40.381,866.77,0.0, NaN,12.718,12.682, NaN,24.946,   NaN,12.92,1013.38,88.08,12.65,183.4,178.3,4.3,4.5,298.4,296.2,9.9,10.1,NaN, NaN,NaN,117.8,NaN,1081470154,NaN,NaN,9.8,001353,   NaN,116.8,34.280030,-120.374230,0.61,NaN,NaN,14.142, NaN,NaN,NaN, NaN, NaN
20040409,002303,1470173,34.279270,-120.372530,NaN,14.150,33.438,40.399,1108.46,0.0, NaN,12.715,12.671, NaN,24.949,   NaN,12.86,1013.38,87.79,12.61,182.2,173.0,4.6,4.7,297.8,293.7,10.2,10.2,NaN, NaN,NaN,117.0,NaN,1081470184,NaN,NaN,10.6,001383,   NaN,115.0,34.279310,-120.372600,0.53,NaN,NaN,14.153, NaN,NaN,NaN, NaN, NaN
20040409,002333,1470203,34.278560,-120.370960,NaN,14.161,33.438,40.409,1411.77,0.0, NaN,12.712,12.669, NaN,24.947,   NaN,12.83,1013.39,87.82,12.59,182.2,172.7,4.8,4.6,297.6,293.4,10.3,10.1,NaN, NaN,NaN,117.5,NaN,1081470214,NaN,NaN,10.8,001413,   NaN,114.1,34.278600,-120.371030,0.67,NaN,NaN,14.164, NaN,NaN,NaN, NaN, NaN
20040409,002403,1470233,34.277850,-120.369350,NaN,14.160,33.439,40.409,1471.57,0.0, NaN,12.704,12.668, NaN,24.947,   NaN,12.90,1013.40,88.19,12.57,184.1,179.5,4.0,4.2,298.5,296.3,9.5,9.8,NaN, NaN,NaN,120.8,NaN,1081470244,NaN,NaN,11.0,001443,   NaN,115.8,34.277890,-120.369420,0.58,NaN,NaN,14.163, NaN,NaN,NaN, NaN, NaN
20040409,002433,1470263,34.277110,-120.367740,NaN,14.160,33.439,40.409,1533.31,0.0, NaN,12.700,12.664, NaN,24.948,   NaN,12.99,1013.36,88.45,12.60,188.2,187.6,3.3,3.4,300.2,299.7,8.8,9.0,NaN, NaN,NaN,118.9,NaN,1081470274,NaN,NaN,10.5,001473,   NaN,113.2,34.277150,-120.367820,0.81,NaN,NaN,14.163, NaN,NaN,NaN, NaN, NaN
20040409,002503,1470292,34.276420,-120.366130,NaN,14.159,33.438,40.407,1535.66,0.0, NaN,12.700,12.665, NaN,24.947,   NaN,13.08,1013.44,88.61,12.65,193.2,195.7,2.9,3.0,301.4,302.6,8.4,8.5,NaN, NaN,NaN,116.1,NaN,1081470304,NaN,NaN,11.2,001503,   NaN,113.4,34.276460,-120.366210,0.70,NaN,NaN,14.162, NaN,NaN,NaN, NaN, NaN
20040409,002533,1470323,34.275660,-120.364430,NaN,14.164,33.439,40.412,1069.69,0.0, NaN,12.702,12.666, NaN,24.946,   NaN,13.07,1013.39,88.31,12.65,195.1,198.2,3.3,3.1,301.3,302.8,9.0,8.7,NaN, NaN,NaN,120.3,NaN,1081470334,NaN,NaN,10.1,001533,   NaN,116.2,34.275710,-120.364500,0.65,NaN,NaN,14.167, NaN,NaN,NaN, NaN, NaN
20040409,002603,1470353,34.274910,-120.362820,NaN,14.157,33.439,40.406,1259.91,0.0, NaN,12.699,12.666, NaN,24.948,   NaN,13.06,1013.35,88.32,12.66,192.2,193.2,3.9,3.6,301.9,302.2,9.6,9.3,NaN, NaN,NaN,120.2,NaN,1081470364,NaN,NaN,9.7,001563,   NaN,113.4,34.274950,-120.362900,0.63,NaN,NaN,14.160, NaN,NaN,NaN, NaN, NaN
20040409,002633,1470383,34.274190,-120.361180,NaN,14.150,33.439,40.401,1180.80,0.0, NaN,12.700,12.665, NaN,24.950,   NaN,13.01,1013.45,87.69,12.63,191.4,194.8,4.1,4.1,301.9,303.1,9.8,9.8,NaN, NaN,NaN,118.4,NaN,1081470394,NaN,NaN,12.2,001593,   NaN,113.5,34.274240,-120.361250,0.46,NaN,NaN,14.153, NaN,NaN,NaN, NaN, NaN
20040409,002703,1470413,34.273500,-120.359490,NaN,14.145,33.440,40.396,1533.96,0.0, NaN,12.702,12.666, NaN,24.951,   NaN,12.98,1013.32,87.74,12.58,198.5,198.7,3.6,4.1,301.9,303.3,9.2,9.8,NaN, NaN,NaN,120.6,NaN,1081470424,NaN,NaN,9.6,001623,   NaN,113.2,34.273550,-120.359570,0.38,NaN,NaN,14.148, NaN,NaN,NaN, NaN, NaN
20040409,002733,1470442,34.272820,-120.357880,NaN,14.140,33.440,40.392,1801.32,0.0, NaN,12.702,12.667, NaN,24.953,   NaN,13.04,1013.41,88.14,12.60,206.1,198.2,3.3,3.8,304.1,302.5,8.8,9.4,NaN, NaN,NaN,118.3,NaN,1081470454,NaN,NaN,10.7,001653,   NaN,113.8,34.272860,-120.357950,0.66,NaN,NaN,14.143, NaN,NaN,NaN, NaN, NaN
20040409,002803,1470473,34.272090,-120.356240,NaN,14.133,33.440,40.385,1809.49,0.0, NaN,12.708,12.667, NaN,24.954,   NaN,13.10,1013.40,88.03,12.61,205.1,198.0,3.5,3.9,304.9,303.2,9.0,9.5,NaN, NaN,NaN,120.5,NaN,1081470484,NaN,NaN,10.3,001683,   NaN,117.1,34.272140,-120.356310,0.62,NaN,NaN,14.136, NaN,NaN,NaN, NaN, NaN
20040409,002833,1470503,34.271380,-120.354640,NaN,14.128,33.440,40.380,1801.43,0.0, NaN,12.711,12.669, NaN,24.955,   NaN,13.11,1013.42,87.93,12.61,199.6,197.0,4.1,4.6,304.5,304.1,9.6,10.1,NaN, NaN,NaN,119.7,NaN,1081470514,NaN,NaN,11.7,001713,   NaN,112.6,34.271420,-120.354710,0.75,NaN,NaN,14.131, NaN,NaN,NaN, NaN, NaN
20040409,002903,1470533,34.270670,-120.352990,NaN,14.126,33.440,40.379,1775.17,0.0, NaN,12.711,12.666, NaN,24.956,   NaN,13.08,1013.38,87.58,12.59,197.1,196.7,4.1,4.5,303.7,303.8,9.7,10.1,NaN, NaN,NaN,117.7,NaN,1081470544,NaN,NaN,11.0,001743,   NaN,115.9,34.270720,-120.353050,0.52,NaN,NaN,14.129, NaN,NaN,NaN, NaN, NaN
20040409,002933,1470563,34.269990,-120.351350,NaN,14.124,33.440,40.377,1756.33,0.0, NaN,12.714,12.668, NaN,24.956,   NaN,13.10,1013.38,87.93,12.59,200.6,200.5,3.4,3.9,303.4,304.0,8.8,9.4,NaN, NaN,NaN,113.8,NaN,1081470574,NaN,NaN,11.5,001773,   NaN,114.2,34.270030,-120.351420,0.70,NaN,NaN,14.127, NaN,NaN,NaN, NaN, NaN
20040409,003003,1470593,34.269290,-120.349690,NaN,14.126,33.441,40.379,1742.58,0.0, NaN,12.711,12.671, NaN,24.956,   NaN,13.16,1013.38,88.16,12.61,201.9,202.0,2.9,3.5,303.0,304.2,8.3,9.0,NaN, NaN,NaN,115.2,NaN,1081470604,NaN,NaN,11.8,001803,   NaN,114.2,34.269340,-120.349760,0.47,NaN,NaN,14.129, NaN,NaN,NaN, NaN, NaN
20040409,003033,1470622,34.268590,-120.348090,NaN,14.128,33.439,40.379,1740.93,0.0, NaN,12.714,12.682, NaN,24.954,   NaN,13.22,1013.36,88.26,12.64,199.6,198.4,3.3,3.5,302.6,303.0,8.8,9.0,NaN, NaN,NaN,119.5,NaN,1081470634,NaN,NaN,10.9,001833,   NaN,114.6,34.268640,-120.348160,0.59,NaN,NaN,14.131, NaN,NaN,NaN, NaN, NaN
20040409,003103,1470653,34.267900,-120.346460,NaN,14.125,33.439,40.377,1767.29,0.0, NaN,12.722,12.690, NaN,24.955,   NaN,13.22,1013.39,88.01,12.64,196.0,195.7,3.9,3.8,302.2,302.5,9.4,9.3,NaN, NaN,NaN,114.4,NaN,1081470664,NaN,NaN,10.7,001863,   NaN,113.8,34.267950,-120.346530,0.47,NaN,NaN,14.128, NaN,NaN,NaN, NaN, NaN
20040409,003133,1470683,34.267190,-120.344850,NaN,14.127,33.439,40.379,1782.36,0.0, NaN,12.732,12.699, NaN,24.955,   NaN,13.24,1013.36,87.99,12.64,188.2,194.1,3.7,3.5,299.7,301.8,9.3,9.0,NaN, NaN,NaN,118.3,NaN,1081470694,NaN,NaN,10.5,001893,   NaN,115.2,34.267250,-120.344920,0.45,NaN,NaN,14.130, NaN,NaN,NaN, NaN, NaN
20040409,003203,1470713,34.266500,-120.343250,NaN,14.128,33.439,40.379,1737.70,0.0, NaN,12.745,12.709, NaN,24.954,   NaN,13.31,1013.37,88.30,12.70,193.7,199.4,2.8,3.2,300.9,303.6,8.2,8.6,NaN, NaN,NaN,120.2,NaN,1081470724,NaN,NaN,10.6,001923,   NaN,117.2,34.266550,-120.343320,0.42,NaN,NaN,14.131, NaN,NaN,NaN, NaN, NaN
20040409,003233,1470743,34.265800,-120.341650,NaN,14.132,33.439,40.383,1712.97,0.0, NaN,12.754,12.718, NaN,24.953,   NaN,13.27,1013.38,87.68,12.70,199.4,202.3,3.1,3.7,303.0,305.1,8.4,9.2,NaN, NaN,NaN,119.3,NaN,1081470754,NaN,NaN,11.1,001953,   NaN,115.4,34.265850,-120.341710,0.49,NaN,NaN,14.135, NaN,NaN,NaN, NaN, NaN
20040409,003303,1470773,34.265140,-120.340030,NaN,14.134,33.438,40.383,1709.76,0.0, NaN,12.762,12.726, NaN,24.952,   NaN,13.22,1013.33,87.51,12.66,199.8,199.1,3.6,4.3,303.3,303.9,9.0,9.7,NaN, NaN,NaN,111.7,NaN,1081470784,NaN,NaN,10.2,001983,   NaN,105.0,34.265180,-120.340110,0.60,NaN,NaN,14.137, NaN,NaN,NaN, NaN, NaN
20040409,003333,1470803,34.264740,-120.338300,NaN,14.134,33.438,40.384,1700.79,0.0, NaN,12.767,12.731, NaN,24.952,   NaN,13.21,1013.33,87.59,12.66,212.6,209.8,3.6,4.5,302.7,303.2,8.8,9.7,NaN, NaN,NaN,105.0,NaN,1081470814,NaN,NaN,10.3,002013,   NaN,102.4,34.264770,-120.338390,0.62,NaN,NaN,14.137, NaN,NaN,NaN, NaN, NaN
20040409,003403,1470833,34.264300,-120.336590,NaN,14.143,33.436,40.391,1711.69,0.0, NaN,12.772,12.736, NaN,24.949,   NaN,13.13,1013.35,87.21,12.61,221.4,215.4,3.9,5.0,302.5,302.2,8.9,10.1,NaN, NaN,NaN,107.2,NaN,1081470844,NaN,NaN,10.6,002043,   NaN,103.9,34.264340,-120.336670,0.69,NaN,NaN,14.146, NaN,NaN,NaN, NaN, NaN
20040409,003433,1470863,34.263840,-120.334850,NaN,14.144,33.436,40.391,1717.72,0.0, NaN,12.776,12.739, NaN,24.949,   NaN,13.03,1013.38,87.12,12.55,220.8,210.8,3.7,4.9,301.9,300.3,8.8,10.1,NaN, NaN,NaN,107.8,NaN,1081470874,NaN,NaN,11.5,002073,   NaN,105.0,34.263880,-120.334920,0.56,NaN,NaN,14.147, NaN,NaN,NaN, NaN, NaN
20040409,003503,1470893,34.263370,-120.333090,NaN,14.145,33.434,40.390,1710.19,0.0, NaN,12.779,12.744, NaN,24.947,   NaN,13.01,1013.34,87.42,12.49,218.1,208.6,3.4,4.6,301.2,299.5,8.5,9.9,NaN, NaN,NaN,106.0,NaN,1081470904,NaN,NaN,11.2,002103,   NaN,104.9,34.263420,-120.333220,0.47,NaN,NaN,14.148, NaN,NaN,NaN, NaN, NaN
20040409,003533,1470923,34.262930,-120.331360,NaN,14.152,33.433,40.395,1705.11,0.0, NaN,12.783,12.746, NaN,24.944,   NaN,12.99,1013.33,87.62,12.46,220.3,207.2,3.2,4.7,300.9,298.6,8.3,10.1,NaN, NaN,NaN,106.4,NaN,1081470934,NaN,NaN,11.1,002133,   NaN,102.0,34.262950,-120.331430,0.54,NaN,NaN,14.155, NaN,NaN,NaN, NaN, NaN
20040409,003603,1470952,34.262480,-120.329560,NaN,14.165,33.431,40.405,1688.29,0.0, NaN,12.783,12.747, NaN,24.940,   NaN,12.96,1013.38,87.76,12.44,217.3,207.6,3.3,4.5,299.1,297.4,8.5,10.0,NaN, NaN,NaN,106.9,NaN,1081470964,NaN,NaN,12.2,002163,   NaN,104.6,34.262520,-120.329610,0.59,NaN,NaN,14.168, NaN,NaN,NaN, NaN, NaN
20040409,003633,1470983,34.262050,-120.327800,NaN,14.171,33.428,40.408,1598.11,0.0, NaN,12.783,12.746, NaN,24.937,   NaN,13.01,1013.31,88.40,12.44,219.4,212.9,3.0,4.0,297.8,298.1,8.2,9.3,NaN, NaN,NaN,110.2,NaN,1081470994,NaN,NaN,11.8,002193,   NaN,105.2,34.262080,-120.327870,0.43,NaN,NaN,14.174, NaN,NaN,NaN, NaN, NaN